| time (UTC) | temp F | wind direction | speed MPH | gust MPH | rain 1hr in | rain 24hr in | rain mn in | humidity % | barometer mb |
| 20260904090903 | 69 | 153 | 9.0 | 17.0 | 0.00 | 0.00 | 0.00 | 45 | |
| 20260904090004 | 69 | 148 | 8.0 | 20.0 | 0.00 | 0.00 | 0.00 | 44 | |
| 20260904085403 | 69 | 150 | 8.0 | 16.0 | 0.00 | 0.00 | 0.00 | 44 | |
| 20260904084503 | 69 | 147 | 8.0 | 17.0 | 0.00 | 0.00 | 0.00 | 44 | |
| 20260904083603 | 70 | 146 | 10.0 | 21.0 | 0.00 | 0.00 | 0.00 | 43 | |
| 20260904082703 | 70 | 147 | 11.0 | 27.0 | 0.00 | 0.00 | 0.00 | 43 | |
| 20260904081803 | 69 | 144 | 8.0 | 23.0 | 0.00 | 0.00 | 0.00 | 41 | |
| 20260904080903 | 69 | 155 | 8.0 | 17.0 | 0.00 | 0.00 | 0.00 | 39 | |
| 20260904080003 | 69 | 156 | 8.0 | 18.0 | 0.00 | 0.00 | 0.00 | 37 | |
| 20260904075403 | 69 | 162 | 8.0 | 17.0 | 0.00 | 0.00 | 0.00 | 36 | |
| 20260904074503 | 69 | 163 | 8.0 | 16.0 | 0.00 | 0.00 | 0.00 | 33 | |
| 20260904073603 | 69 | 161 | 7.0 | 18.0 | 0.00 | 0.00 | 0.00 | 31 | |
| 20260904072703 | 68 | 162 | 7.0 | 16.0 | 0.00 | 0.00 | 0.00 | 30 | |
| 20260904071803 | 69 | 167 | 7.0 | 15.0 | 0.00 | 0.00 | 0.00 | 29 | |
| 20260904070903 | 69 | 166 | 8.0 | 18.0 | 0.00 | 0.00 | 0.00 | 28 | |
| 20260904070003 | 69 | 168 | 9.0 | 16.0 | 0.00 | 0.00 | 0.00 | 27 | |
| 20260904065403 | 69 | 165 | 9.0 | 17.0 | 0.00 | 0.00 | 0.00 | 26 | |
| 20260904064503 | 69 | 174 | 8.0 | 22.0 | 0.00 | 0.00 | 0.00 | 25 | |
| 20260904063603 | 69 | 170 | 9.0 | 16.0 | 0.00 | 0.00 | 0.00 | 24 | |
| 20260904062703 | 69 | 172 | 8.0 | 20.0 | 0.00 | 0.00 | 0.00 | 23 | |
| 20260904061803 | 69 | 169 | 8.0 | 20.0 | 0.00 | 0.00 | 0.00 | 22 | |
| 20260904060903 | 70 | 169 | 7.0 | 16.0 | 0.00 | 0.00 | 0.00 | 22 | |
| 20260904060007 | 70 | 167 | 8.0 | 21.0 | 0.00 | 0.00 | 0.00 | 21 | |
| 20260904055614 | 70 | 164 | 7.0 | 21.0 | 0.00 | 0.00 | 0.00 | 21 | |
| 20260904054503 | 70 | 160 | 6.0 | 13.0 | 0.00 | 0.00 | 0.00 | 20 | |
| 20260904053603 | 70 | 157 | 6.0 | 13.0 | 0.00 | 0.00 | 0.00 | 19 | |
| 20260904052703 | 70 | 159 | 7.0 | 16.0 | 0.00 | 0.00 | 0.00 | 19 | |
| 20260904051803 | 70 | 155 | 6.0 | 15.0 | 0.00 | 0.00 | 0.00 | 18 | |
| 20260904050903 | 71 | 144 | 6.0 | 13.0 | 0.00 | 0.00 | 0.00 | 18 | |
| 20260904050214 | 71 | 156 | 7.0 | 19.0 | 0.00 | 0.00 | 0.00 | 18 | |
| 20260904045613 | 71 | 154 | 7.0 | 15.0 | 0.00 | 0.00 | 0.00 | 18 | |
| 20260904044503 | 71 | 146 | 5.0 | 14.0 | 0.00 | 0.00 | 0.00 | 17 | |
| 20260904043814 | 71 | 148 | 7.0 | 15.0 | 0.00 | 0.00 | 0.00 | 17 | |
| 20260904042913 | 71 | 138 | 6.0 | 14.0 | 0.00 | 0.00 | 0.00 | 16 | |
| 20260904042013 | 71 | 139 | 5.0 | 14.0 | 0.00 | 0.00 | 0.00 | 17 | |
| 20260904040903 | 71 | 141 | 6.0 | 12.0 | 0.00 | 0.00 | 0.00 | 16 | |
| 20260904040003 | 71 | 145 | 5.0 | 11.0 | 0.00 | 0.00 | 0.00 | 16 | |
| 20260904035403 | 71 | 140 | 5.0 | 14.0 | 0.00 | 0.00 | 0.00 | 17 | |
| 20260904034503 | 71 | 138 | 4.0 | 11.0 | 0.00 | 0.00 | 0.00 | 17 | |
| 20260904033603 | 71 | 133 | 3.0 | 10.0 | 0.00 | 0.00 | 0.00 | 18 | |
| 20260904032913 | 71 | 133 | 3.0 | 6.0 | 0.00 | 0.00 | 0.00 | 18 | |
| 20260904032014 | 71 | 126 | 2.0 | 6.0 | 0.00 | 0.00 | 0.00 | 19 | |
| 20260904030903 | 71 | 140 | 2.0 | 6.0 | 0.00 | 0.00 | 0.00 | 18 | |
| 20260904030003 | 72 | 137 | 2.0 | 5.0 | 0.00 | 0.00 | 0.00 | 18 | |
| 20260904025403 | 72 | 116 | 3.0 | 6.0 | 0.00 | 0.00 | 0.00 | 18 | |
| 20260904024503 | 72 | 122 | 3.0 | 10.0 | 0.00 | 0.00 | 0.00 | 17 | |
| 20260904023813 | 70 | 134 | 3.0 | 10.0 | 0.00 | 0.00 | 0.00 | 17 | |
| 20260904022703 | 70 | 177 | 1.0 | 5.0 | 0.00 | 0.00 | 0.00 | 18 | |
| 20260904021803 | 71 | 169 | 0.0 | 2.0 | 0.00 | 0.00 | 0.00 | 18 | |
| 20260904020903 | 72 | 176 | 2.0 | 7.0 | 0.00 | 0.00 | 0.00 | 17 | |
| 20260904020003 | 73 | 187 | 4.0 | 11.0 | 0.00 | 0.00 | 0.00 | 16 | |
| 20260904015403 | 73 | 184 | 4.0 | 13.0 | 0.00 | 0.00 | 0.00 | 16 | |
| 20260904014504 | 74 | 197 | 5.0 | 12.0 | 0.00 | 0.00 | 0.00 | 16 | |
| 20260904013603 | 75 | 197 | 6.0 | 16.0 | 0.00 | 0.00 | 0.00 | 16 | |
| 20260904012703 | 76 | 193 | 8.0 | 18.0 | 0.00 | 0.00 | 0.00 | 16 | |
| 20260904011803 | 76 | 188 | 6.0 | 18.0 | 0.00 | 0.00 | 0.00 | 16 | |
| 20260904010903 | 77 | 181 | 8.0 | 20.0 | 0.00 | 0.00 | 0.00 | 16 | |
| 20260904010214 | 78 | 190 | 6.0 | 15.0 | 0.00 | 0.00 | 0.00 | 16 | |
| 20260904005403 | 78 | 183 | 7.0 | 17.0 | 0.00 | 0.00 | 0.00 | 16 | |
| 20260904004503 | 79 | 180 | 8.0 | 18.0 | 0.00 | 0.00 | 0.00 | 17 | |
| 20260904003603 | 79 | 158 | 7.0 | 21.0 | 0.00 | 0.00 | 0.00 | 16 | |
| 20260904002703 | 79 | 166 | 7.0 | 13.0 | 0.00 | 0.00 | 0.00 | 16 | |
| 20260904001803 | 80 | 168 | 8.0 | 19.0 | 0.00 | 0.00 | 0.00 | 16 | |
| 20260904001112 | 80 | 167 | 9.0 | 21.0 | 0.00 | 0.00 | 0.00 | 17 | |
| 20260904000003 | 80 | 177 | 10.0 | 20.0 | 0.00 | 0.00 | 0.00 | 16 | |
| 20260903235403 | 80 | 185 | 11.0 | 21.0 | 0.00 | 0.00 | 0.00 | 16 | |
| 20260903234503 | 80 | 196 | 10.0 | 23.0 | 0.00 | 0.00 | 0.00 | 17 | |
| 20260903233814 | 80 | 194 | 9.0 | 19.0 | 0.00 | 0.00 | 0.00 | 16 | |
| 20260903232703 | 80 | 183 | 11.0 | 25.0 | 0.00 | 0.00 | 0.00 | 16 | |
| 20260903231803 | 80 | 197 | 10.0 | 20.0 | 0.00 | 0.00 | 0.00 | 17 | |
| 20260903230903 | 80 | 202 | 11.0 | 23.0 | 0.00 | 0.00 | 0.00 | 17 | |
| 20260903230003 | 81 | 190 | 10.0 | 24.0 | 0.00 | 0.00 | 0.00 | 17 | |
| 20260903225403 | 81 | 186 | 10.0 | 22.0 | 0.00 | 0.00 | 0.00 | 17 | |
| 20260903224503 | 82 | 164 | 9.0 | 21.0 | 0.00 | 0.00 | 0.00 | 17 | |
| 20260903223603 | 81 | 179 | 11.0 | 22.0 | 0.00 | 0.00 | 0.00 | 17 | |
| 20260903222704 | 81 | 193 | 12.0 | 22.0 | 0.00 | 0.00 | 0.00 | 17 | |
| 20260903222012 | 81 | 185 | 11.0 | 25.0 | 0.00 | 0.00 | 0.00 | 18 | |
| 20260903221114 | 81 | 178 | 10.0 | 23.0 | 0.00 | 0.00 | 0.00 | 18 | |
| 20260903220003 | 81 | 176 | 10.0 | 21.0 | 0.00 | 0.00 | 0.00 | 17 | |
| 20260903215403 | 82 | 180 | 9.0 | 19.0 | 0.00 | 0.00 | 0.00 | 19 | |
| 20260903214503 | 81 | 185 | 10.0 | 20.0 | 0.00 | 0.00 | 0.00 | 19 | |
| 20260903213603 | 81 | 185 | 11.0 | 22.0 | 0.00 | 0.00 | 0.00 | 19 | |
| 20260903212703 | 81 | 196 | 11.0 | 21.0 | 0.00 | 0.00 | 0.00 | 19 | |
| 20260903211803 | 80 | 199 | 11.0 | 25.0 | 0.00 | 0.00 | 0.00 | 21 | |
| 20260903210903 | 80 | 199 | 12.0 | 21.0 | 0.00 | 0.00 | 0.00 | 20 | |
| 20260903210003 | 80 | 207 | 11.0 | 24.0 | 0.00 | 0.00 | 0.00 | 20 | |
| 20260903205403 | 80 | 192 | 10.0 | 24.0 | 0.00 | 0.00 | 0.00 | 22 | |
| 20260903204503 | 81 | 193 | 11.0 | 21.0 | 0.00 | 0.00 | 0.00 | 22 | |
| 20260903203603 | 81 | 183 | 10.0 | 17.0 | 0.00 | 0.00 | 0.00 | 20 | |
| 20260903202703 | 81 | 177 | 10.0 | 18.0 | 0.00 | 0.00 | 0.00 | 20 | |
| 20260903201803 | 80 | 167 | 10.0 | 24.0 | 0.00 | 0.00 | 0.00 | 22 | |
| 20260903200903 | 80 | 168 | 11.0 | 28.0 | 0.00 | 0.00 | 0.00 | 22 | |
| 20260903200003 | 80 | 155 | 10.0 | 19.0 | 0.00 | 0.00 | 0.00 | 21 | |
| 20260903195614 | 80 | 160 | 9.0 | 19.0 | 0.00 | 0.00 | 0.00 | 21 | |
| 20260903194503 | 79 | 145 | 10.0 | 19.0 | 0.00 | 0.00 | 0.00 | 22 | |
| 20260903193812 | 79 | 152 | 11.0 | 22.0 | 0.00 | 0.00 | 0.00 | 22 | |
| 20260903192703 | 79 | 167 | 11.0 | 24.0 | 0.00 | 0.00 | 0.00 | 22 | |
| 20260903191803 | 78 | 181 | 11.0 | 29.0 | 0.00 | 0.00 | 0.00 | 24 | |
| 20260903190903 | 78 | 155 | 11.0 | 25.0 | 0.00 | 0.00 | 0.00 | 23 | |
| 20260903190003 | 78 | 159 | 12.0 | 23.0 | 0.00 | 0.00 | 0.00 | 23 | |
| 20260903185403 | 78 | 155 | 11.0 | 23.0 | 0.00 | 0.00 | 0.00 | 22 | |
| 20260903184503 | 77 | 171 | 11.0 | 23.0 | 0.00 | 0.00 | 0.00 | 24 | |
| 20260903183603 | 77 | 171 | 11.0 | 22.0 | 0.00 | 0.00 | 0.00 | 24 | |
| 20260903182703 | 76 | 173 | 12.0 | 22.0 | 0.00 | 0.00 | 0.00 | 23 | |
| 20260903181803 | 76 | 182 | 12.0 | 24.0 | 0.00 | 0.00 | 0.00 | 24 | |
| 20260903180903 | 76 | 177 | 10.0 | 21.0 | 0.00 | 0.00 | 0.00 | 26 | |
| 20260903180003 | 76 | 177 | 11.0 | 23.0 | 0.00 | 0.00 | 0.00 | 24 | |
| 20260903175403 | 75 | 178 | 12.0 | 23.0 | 0.00 | 0.00 | 0.00 | 23 | |
| 20260903174503 | 75 | 178 | 11.0 | 23.0 | 0.00 | 0.00 | 0.00 | 24 | |
| 20260903173603 | 75 | 176 | 10.0 | 23.0 | 0.00 | 0.00 | 0.00 | 25 | |
| 20260903172703 | 75 | 195 | 10.0 | 20.0 | 0.00 | 0.00 | 0.00 | 26 | |
| 20260903171803 | 75 | 180 | 9.0 | 21.0 | 0.00 | 0.00 | 0.00 | 25 | |
| 20260903171114 | 74 | 182 | 10.0 | 21.0 | 0.00 | 0.00 | 0.00 | 25 | |
| 20260903170213 | 74 | 177 | 11.0 | 25.0 | 0.00 | 0.00 | 0.00 | 24 | |
| 20260903165403 | 74 | 172 | 9.0 | 18.0 | 0.00 | 0.00 | 0.00 | 24 | |
| 20260903164503 | 74 | 170 | 9.0 | 19.0 | 0.00 | 0.00 | 0.00 | 27 | |
| 20260903163813 | 73 | 165 | 9.0 | 19.0 | 0.00 | 0.00 | 0.00 | 26 | |
| 20260903162704 | 73 | 171 | 10.0 | 20.0 | 0.00 | 0.00 | 0.00 | 29 | |
| 20260903161803 | 72 | 170 | 10.0 | 20.0 | 0.00 | 0.00 | 0.00 | 28 | |
| 20260903160903 | 72 | 178 | 8.0 | 18.0 | 0.00 | 0.00 | 0.00 | 29 | |
| 20260903160003 | 71 | 198 | 7.0 | 14.0 | 0.00 | 0.00 | 0.00 | 30 | |
| 20260903155403 | 70 | 188 | 8.0 | 21.0 | 0.00 | 0.00 | 0.00 | 29 | |
| 20260903154503 | 70 | 185 | 7.0 | 16.0 | 0.00 | 0.00 | 0.00 | 28 | |
| 20260903153603 | 69 | 185 | 7.0 | 15.0 | 0.00 | 0.00 | 0.00 | 28 | |
| 20260903152703 | 69 | 182 | 6.0 | 16.0 | 0.00 | 0.00 | 0.00 | 27 | |
| 20260903151803 | 68 | 190 | 5.0 | 11.0 | 0.00 | 0.00 | 0.00 | 28 | |
| 20260903150903 | 67 | 205 | 4.0 | 9.0 | 0.00 | 0.00 | 0.00 | 27 | |
| 20260903150003 | 66 | 203 | 3.0 | 7.0 | 0.00 | 0.00 | 0.00 | 27 | |
| 20260903145403 | 66 | 197 | 4.0 | 10.0 | 0.00 | 0.00 | 0.00 | 28 | |
| 20260903144713 | 65 | 184 | 3.0 | 6.0 | 0.00 | 0.00 | 0.00 | 26 | |
| 20260903143603 | 63 | 169 | 2.0 | 5.0 | 0.00 | 0.00 | 0.00 | 28 | |
| 20260903142703 | 61 | 195 | 2.0 | 7.0 | 0.00 | 0.00 | 0.00 | 28 | |
| 20260903141803 | 58 | 248 | 1.0 | 4.0 | 0.00 | 0.00 | 0.00 | 32 | |
| 20260903141113 | 57 | 254 | 2.0 | 4.0 | 0.00 | 0.00 | 0.00 | 33 | |
| 20260903140003 | 57 | 198 | 2.0 | 5.0 | 0.00 | 0.00 | 0.00 | 36 | |
| 20260903135403 | 56 | 151 | 3.0 | 6.0 | 0.00 | 0.00 | 0.00 | 34 | |
| 20260903134503 | 52 | 191 | 1.0 | 6.0 | 0.00 | 0.00 | 0.00 | 34 | |
| 20260903133603 | 51 | 220 | 0.0 | 2.0 | 0.00 | 0.00 | 0.00 | 38 | |
| 20260903132703 | 51 | 220 | 0.0 | 3.0 | 0.00 | 0.00 | 0.00 | 40 | |
| 20260903132013 | 50 | 220 | 1.0 | 3.0 | 0.00 | 0.00 | 0.00 | 40 | |
| 20260903130904 | 49 | 220 | 0.0 | 2.0 | 0.00 | 0.00 | 0.00 | 41 | |
| 20260903130003 | 49 | 220 | 1.0 | 3.0 | 0.00 | 0.00 | 0.00 | 42 | |
| 20260903125403 | 49 | 220 | 1.0 | 3.0 | 0.00 | 0.00 | 0.00 | 41 | |
| 20260903124503 | 49 | 211 | 1.0 | 4.0 | 0.00 | 0.00 | 0.00 | 42 | |
| 20260903123814 | 49 | 0 | 0.0 | 0.0 | 0.00 | 0.00 | 0.00 | 43 | |
| 20260903122703 | 48 | 163 | 0.0 | 3.0 | 0.00 | 0.00 | 0.00 | 43 | |
| 20260903121803 | 48 | 0 | 0.0 | 0.0 | 0.00 | 0.00 | 0.00 | 44 | |
| 20260903120903 | 48 | 0 | 0.0 | 0.0 | 0.00 | 0.00 | 0.00 | 42 | |
| 20260903120003 | 49 | 163 | 0.0 | 1.0 | 0.00 | 0.00 | 0.00 | 41 | |
| 20260903115403 | 50 | 163 | 0.0 | 1.0 | 0.00 | 0.00 | 0.00 | 40 | |
| 20260903114503 | 51 | 163 | 0.0 | 2.0 | 0.00 | 0.00 | 0.00 | 39 | |
| 20260903113814 | 52 | 163 | 0.0 | 1.0 | 0.00 | 0.00 | 0.00 | 37 | |
| 20260903112913 | 53 | 0 | 0.0 | 0.0 | 0.00 | 0.00 | 0.00 | 36 | |
| 20260903111803 | 56 | 163 | 1.0 | 3.0 | 0.00 | 0.00 | 0.00 | 32 | |
| 20260903110903 | 58 | 163 | 1.0 | 3.0 | 0.00 | 0.00 | 0.00 | 31 | |
| 20260903110003 | 59 | 176 | 2.0 | 6.0 | 0.00 | 0.00 | 0.00 | 28 | |
| 20260903105403 | 59 | 177 | 2.0 | 9.0 | 0.00 | 0.00 | 0.00 | 28 | |
| 20260903104714 | 59 | 174 | 2.0 | 9.0 | 0.00 | 0.00 | 0.00 | 27 | |
| 20260903103813 | 59 | 181 | 2.0 | 5.0 | 0.00 | 0.00 | 0.00 | 27 | |
| 20260903102703 | 60 | 180 | 2.0 | 7.0 | 0.00 | 0.00 | 0.00 | 27 | |
| 20260903101803 | 60 | 162 | 2.0 | 6.0 | 0.00 | 0.00 | 0.00 | 27 | |
| 20260903100903 | 60 | 156 | 3.0 | 7.0 | 0.00 | 0.00 | 0.00 | 27 | |
| 20260903100212 | 60 | 148 | 3.0 | 7.0 | 0.00 | 0.00 | 0.00 | 27 | |
| 20260903095403 | 59 | 139 | 3.0 | 7.0 | 0.00 | 0.00 | 0.00 | 28 | |
| 20260903094503 | 55 | 136 | 2.0 | 5.0 | 0.00 | 0.00 | 0.00 | 32 | |
| 20260903093603 | 52 | 330 | 0.0 | 2.0 | 0.00 | 0.00 | 0.00 | 36 | |
| 20260903092703 | 52 | 0 | 0.0 | 0.0 | 0.00 | 0.00 | 0.00 | 39 | |
| 20260903091803 | 52 | 330 | 1.0 | 4.0 | 0.00 | 0.00 | 0.00 | 40 |